Lawrence, MA

6:56 AM EST on November 13, 2019 (GMT -0500)
Lawrence Municipal

Weather History for KLWM - August, 2019

Change the Weather History Date:

Tuesday, August 6, 2019

  Actual Average Record
Temperature  
Mean Temperature 70 °F -  
Max Temperature 81 °F 83 °F 96 °F (1931)
Min Temperature 60 °F 63 °F 44 °F (1960)
Cooling Degree Days 4    
Growing Degree Days 20 (Base 50)    
Moisture  
Dew Point 63 °F    
Average Humidity 78    
Maximum Humidity 90    
Minimum Humidity 52    
Precipitation  
Precipitation 0.00 in - - ()
Sea Level Pressure  
Sea Level Pressure 29.91 in    
Wind  
Wind Speed 4 mph (SSE)    
Max Wind Speed 9 mph    
Max Gust Speed -    
Visibility 10 miles    
Events      
Averages and records for this station are not official NWS values.
T = Trace of Precipitation, MM = Missing Value Source: NWS Daily Summary

Daily Weather History Graph

Daily Weather History Graph

Search for Another Location

Airport or City:

Astronomy

Aug. 06, 2019 Rise Set
Actual Time 5:41 AM EDT 7:59 PM EDT
Civil Twilight 5:09 AM EDT 8:30 PM EDT
Nautical Twilight 4:30 AM EDT 9:09 PM EDT
Astronomical Twilight 3:47 AM EDT 9:52 PM EDT
Moon 12:11 PM EDT (8/6) 11:33 PM EDT (8/6)
Length of Visible Light 15h 20m
Length of Day
14h 17m
Waxing Crescent, 38% of the Moon is Illuminated
Aug 6
Waxing Crescent
Aug 7
First Quarter
Aug 15
Full
Aug 23
Last Quarter
Aug 30
New

Hourly Weather History & Observations

Time (EDT) Temp. Dew Point Humidity Pressure Visibility Wind Dir Wind Speed Gust Speed Precip Events Conditions
12:54 AM 64.9 °F 59.0 °F 81% 29.97 in 10.0 mi SSW 4.6 mph - N/A   Clear
1:54 AM 64.0 °F 59.0 °F 84% 29.97 in 10.0 mi Calm Calm - N/A   Clear
2:54 AM 62.1 °F 59.0 °F 90% 29.96 in 10.0 mi Calm Calm - N/A   Clear
3:54 AM 61.0 °F 57.9 °F 90% 29.96 in 10.0 mi South 3.5 mph - N/A   Clear
4:54 AM 60.1 °F 57.0 °F 90% 29.96 in 10.0 mi Calm Calm - N/A   Clear
5:54 AM 60.1 °F 57.0 °F 90% 29.96 in 10.0 mi South 3.5 mph - N/A   Clear
6:54 AM 62.1 °F 59.0 °F 90% 29.96 in 10.0 mi Calm Calm - N/A   Clear
7:54 AM 68.0 °F 61.0 °F 78% 29.96 in 10.0 mi SSW 5.8 mph - N/A   Clear
8:54 AM 71.1 °F 63.0 °F 75% 29.95 in 10.0 mi SSW 5.8 mph - N/A   Clear
9:54 AM 75.9 °F 64.0 °F 67% 29.94 in 10.0 mi SW 5.8 mph - N/A   Clear
10:54 AM 79.0 °F 62.1 °F 56% 29.94 in 10.0 mi Variable 5.8 mph - N/A   Clear
11:54 AM 79.0 °F 60.1 °F 52% 29.93 in 10.0 mi ESE 6.9 mph - N/A   Clear
12:54 PM 79.0 °F 64.9 °F 62% 29.92 in 10.0 mi ESE 9.2 mph - N/A   Clear
1:54 PM 77.0 °F 66.9 °F 71% 29.90 in 10.0 mi SE 6.9 mph - N/A   Partly Cloudy
2:54 PM 77.0 °F 66.9 °F 71% 29.89 in 10.0 mi Variable 4.6 mph - N/A   Clear
3:54 PM 75.9 °F 66.9 °F 74% 29.87 in 10.0 mi SE 8.1 mph - N/A   Clear
4:54 PM 77.0 °F 68.0 °F 74% 29.86 in 10.0 mi SE 8.1 mph - N/A   Partly Cloudy
5:54 PM 77.0 °F 66.9 °F 71% 29.85 in 10.0 mi ESE 4.6 mph - N/A   Scattered Clouds
6:54 PM 75.9 °F 68.0 °F 76% 29.85 in 10.0 mi ESE 6.9 mph - N/A   Clear
7:54 PM 73.0 °F 66.9 °F 81% 29.85 in 10.0 mi Calm Calm - N/A   Clear
8:54 PM 71.1 °F 68.0 °F 90% 29.86 in 10.0 mi Calm Calm - N/A   Clear
9:54 PM 70.0 °F 66.9 °F 90% 29.86 in 10.0 mi Calm Calm - N/A   Clear
10:54 PM 70.0 °F 66.9 °F 90% 29.86 in 10.0 mi SSE 3.5 mph - N/A   Clear
11:54 PM 69.1 °F 64.9 °F 87% 29.86 in 10.0 mi SSW 3.5 mph - N/A   Clear